Regional Weather Roundup
Issued by NWS

Home | Current Version | Previous Version | Text Only | Print | Product List | Glossary Off
Versions: 1 2 3 4 5 6 7 8 9 10 11 12 13 14 15 16 17 18 19 20 21 22 23 24 25 26 27 28 29 30 31 32 33 34 35 36 37 38 39 40 41 42 43 44 45 46 47 48 49 50

885
ASUS45 KBOU 280207
RWRCO

WEATHER ROUNDUP FOR COLORADO
NATIONAL WEATHER SERVICE DENVER/BOULDER CO
800 PM MDT WED APR 27 2016

NOTE: "FAIR" INDICATES FEW OR NO CLOUDS BELOW 12000 FEET WITH NO
SIGNIFICANT WEATHER AND/OR OBSTRUCTIONS TO VISIBILITY.

COZ001>005-013-030-031-280300-
...NORTHWEST COLORADO...

CITY           SKY/WX    TMP DP  RH WIND       PRES   REMARKS
CRAIG          CLOUDY    47  30  51 CALM      29.82R
HAYDEN         MOCLDY    41  30  65 SW5       29.82R
MEEKER         CLOUDY    43  35  73 NE8       29.82S
MOUNT WERNER   NOT AVBL
STEAMBOAT SPGS FAIR      39  31  73 E5        29.83R
WALDEN         FAIR      32  28  86 N12       29.87R WCI  23
$$

COZ006>008-011-280300-
...WEST CENTRAL VALLEYS...

CITY           SKY/WX    TMP DP  RH WIND       PRES   REMARKS
GRAND JUNCTION FAIR      55  34  45 SE8       29.74S
MONTROSE       CLOUDY    51  35  54 NW12      29.81R
EAGLE          FAIR      46  30  53 W7        29.83R
RIFLE          MOCLDY    50  34  54 W3        29.78S
DELTA          NOT AVBL
NUCLA          NOT AVBL
$$

COZ017>023-064>068-280300-
...SOUTHWEST COLORADO...

CITY           SKY/WX    TMP DP  RH WIND       PRES   REMARKS
DURANGO        CLOUDY    51  26  37 W7        29.81R
CORTEZ         CLOUDY    53  30  41 SE6       29.79S
PAGOSA SPRINGS CLOUDY    48  23  37 CALM      29.86R
TELLURIDE      CLOUDY    36  34  94 E3        29.91S
WOLF CREEK PAS NOT AVBL
$$

COZ009-010-012-014-032>034-037-058>063-280300-
...CENTRAL COLORADO...

CITY           SKY/WX    TMP DP  RH WIND       PRES   REMARKS
ASPEN          MOCLDY    39  30  70 CALM      29.84R
BUENA VISTA    MOCLDY    46  20  35 NW5       29.82R
COPPER MTN     NOT AVBL
BERTHOUD PASS  CLOUDY    19   9  63 W8        29.94R WCI   9
COTTONWOOD PAS FAIR      39  19  45 CALM      29.88R
GUNNISON       FAIR      46  23  39 SW5       29.85R
KREMMLING      MOCLDY    41  30  65 SW3       29.86R
LEADVILLE      CLOUDY    32  21  64 NE3       29.88R
MONARCH PASS   CLOUDY    27  19  74 W20G25    30.04R WCI  13
SALIDA         CLOUDY    52  19  27 SW9       29.88R
SUNLIGHT       SNOW      32  30  93 CALM      29.94S VSB 1/2
WILKERSON PASS CLOUDY    32  18  55 CALM      29.95R
$$

COZ069>075-280300-
...SAN LUIS VALLEY/SANGRE DE CRISTO MOUNTAINS...

CITY           SKY/WX    TMP DP  RH WIND       PRES   REMARKS
ALAMOSA        CLOUDY    50  26  39 W12       29.81R
LA VETA PASS   CLOUDY    34  27  75 NE8       29.92R WCI  27
SAGUACHE       CLOUDY    45  30  57 N17       29.84R
$$

COZ035-036-038>040-280300-
...NORTHERN COLORADO FRONT RANGE...

CITY           SKY/WX    TMP DP  RH WIND       PRES   REMARKS
DENVER INTL AP FAIR      44  27  51 NE12      29.82R
DMNS CITY PARK   N/A     47  28  46 E12G22    29.83R
AURORA         FAIR      44  30  56 NE9       29.84R
FRONT RANGE AP MOCLDY    45  28  53 NE15      29.83R
ERIE MUNI ARPT FAIR      47  29  51 E9        29.82R
BOULDER MUN AP CLOUDY    50  32  50 E8        29.81R
CENTENNIAL     MOCLDY    48  30  49 E9        29.82R
BROOMFIELD     MOCLDY    48  30  49 NE13G21   29.82R
FORT COLLINS   FAIR      45  28  53 N12       29.82R
LONGMONT       FAIR      50  34  53 E8        29.82R HAZE
$$

COZ041-046-047-076>085-087-088-280300-
...PIKES PEAK/PALMER DIVIDE AND SOUTHERN FOOTHILLS...

CITY           SKY/WX    TMP DP  RH WIND       PRES   REMARKS
COLO. SPRINGS  MOCLDY    47  31  53 E7        29.83R
A. F. ACADEMY  MOCLDY    45  32  61 N3        29.82R
SCHRIEVER AFB  NOT AVBL
ELLICOTT       NOT AVBL
FALCON         CLOUDY    42  31  66 NE5       29.85R
FORT CARSON    PTCLDY    47  32  56 NE7       29.81R
LIMON          CLOUDY    45  28  51 N12       29.82R
MONUMENT HILL  CLOUDY    37  32  81 E5        29.86R
TRINIDAD       MOCLDY    53  30  41 E17       29.76R
$$

COZ042>045-048>051-090-091-280300-
...NORTHEAST COLORADO...

CITY           SKY/WX    TMP DP  RH WIND       PRES   REMARKS
GREELEY ARPT   FAIR      45  28  53 N15G22    29.82R
AKRON          MOCLDY    41  27  57 N14       29.82R
BURLINGTON     FAIR      46  30  53 N10       29.80R
WRAY           NOT AVBL
STERLING       FAIR      43  30  61 N10       29.81R
HOLYOKE        NOT AVBL
FORT MORGAN    FAIR      42  27  54 N10       29.83R
$$

COZ086-089-092>099-280300-
...SOUTHEAST COLORADO...

CITY           SKY/WX    TMP DP  RH WIND       PRES   REMARKS
PUEBLO         MOCLDY    59  26  28 E14       29.77R
LA JUNTA       FAIR      58  27  30 NE9       29.78R
LAMAR          FAIR      53  31  42 NE7       29.76R
SPRINGFIELD      N/A     49  31  49 E8        29.79R
$$




USA.gov is the U.S. government's official web portal to all federal, state and local government web resources and services.